Location: Unspecified
(40.7945°N, 0.0000°E)
Time: 22:23:27
(UTC+00:00)

BEESAT 2 - Visible Passes

Search period start: 20 July 2019 00:00
Search period end: 30 July 2019 00:00
Orbit: 501 x 529 km, 64.9° (Epoch: 19 July)

Date Brightness Start Highest point End Pass type
(mag) Time Alt. Az. Time Alt. Az. Time Alt. Az.
20 Jul ? 00:55:18 16° ENE 00:55:18 16° ENE 00:56:32 10° ENE visible
20 Jul ? 02:30:15 31° WNW 02:30:58 33° NW 02:34:35 10° NNE visible
21 Jul ? 00:39:43 14° ENE 00:39:43 14° ENE 00:40:35 10° ENE visible
21 Jul ? 02:14:41 32° WNW 02:15:01 33° NW 02:18:38 10° NNE visible
22 Jul ? 00:24:07 13° ENE 00:24:07 13° ENE 00:24:39 10° ENE visible
22 Jul ? 01:59:05 32° NW 01:59:05 32° NW 02:02:40 10° NNE visible
23 Jul ? 00:08:28 11° ENE 00:08:28 11° ENE 00:08:43 10° ENE visible
23 Jul ? 01:43:25 31° NW 01:43:25 31° NW 01:46:41 10° NNE visible
24 Jul ? 01:27:44 30° NNW 01:27:44 30° NNW 01:30:43 10° NNE visible
25 Jul ? 01:12:00 28° NNW 01:12:00 28° NNW 01:14:44 10° NNE visible
26 Jul ? 00:56:14 27° NNW 00:56:14 27° NNW 00:58:46 10° NNE visible
27 Jul ? 00:40:25 25° NNW 00:40:25 25° NNW 00:42:47 10° NNE visible
28 Jul ? 00:24:33 24° NNW 00:24:33 24° NNW 00:26:49 10° NNE visible
29 Jul ? 00:08:37 24° NNW 00:08:37 24° NNW 00:10:51 10° NNE visible
29 Jul ? 23:52:38 24° NNW 23:52:38 24° NNW 23:54:52 10° NNE visible
